{"data":{"norad_id":63949,"epoch":"2026-05-24T21:53:20.558400Z","epoch_age_seconds":72895,"freshness":"FRESH","line1":"1 63949U 25098Z   26144.91204350  .00005969  00000+0  50754-3 0  9998","line2":"2 63949  70.0009  82.1071 0002960 264.8794  95.2028 14.98336255 57964","mean_motion":14.98336255,"eccentricity":0.000296,"inclination_deg":70.0009,"raan_deg":82.1071,"arg_perigee_deg":264.8794,"mean_anomaly_deg":95.2028,"bstar":0.00050754,"rev_number":5796,"period_min":96.106597914498,"perigee_km":569.97929656999,"apogee_km":574.09379931038,"semimajor_km":6950.1735479402,"source":"CELESTRAK","updated_at":"2026-05-25T13:38:20.208790Z"}}